Regional Weather Roundup
Issued by NWS Green Bay, WI

Home | Current Version | Previous Version | Text Only | Print | Product List | Glossary On
Versions: 1 2 3 4 5 6 7 8 9 10 11 12 13 14 15 16 17 18 19 20 21 22 23 24 25 26 27 28 29 30 31 32 33 34 35 36 37 38 39 40 41 42 43 44 45 46 47 48 49 50
000
ASUS43 KGRB 120900
RWRGRB

NORTH-CENTRAL AND NORTHEAST WISCONSIN REGIONAL WEATHER ROUNDUP
NATIONAL WEATHER SERVICE GREEN BAY WI
300 AM CST FRI FEB 12 2016

WIZ005-009-010>012-018-019-121000-
NORTH CENTRAL WISCONSIN

CITY           SKY/WX    TMP DP  RH WIND       PRES   REMARKS
IRONWOOD       CLOUDY    10   3  72 W13       30.02R WCI  -5
MANITOWISH WTR NOT AVBL
ARBOR VITAE    NOT AVBL
EAGLE RIVER    NOT AVBL
LAND O LAKES   NOT AVBL
RHINELANDER    CLOUDY     9  -1  64 W9        30.01S WCI  -4
PHILLIPS       NOT AVBL
ANTIGO         NOT AVBL
TOMAHAWK       NOT AVBL
MERRILL        NOT AVBL
$$

WIZ013-073-121000-
NORTHEAST WISCONSIN

CITY           SKY/WX    TMP DP  RH WIND       PRES   REMARKS
IRON MOUNTAIN  MOCLDY    11  -2  56 W9        29.98S WCI  -2
MARINETTE      CLOUDY    14  -2  48 W7        30.05S WCI   4
$$

WIZ017-030-035>037-045-121000-
CENTRAL WISCONSIN

CITY           SKY/WX    TMP DP  RH WIND       PRES   REMARKS
MEDFORD        NOT AVBL
WAUSAU         CLOUDY    13   2  61 W13       30.06S WCI  -2
MOSINEE        NOT AVBL
MARSHFIELD     CLOUDY    13   2  61 W9        30.07F WCI   1
WISC RAPIDS    CLOUDY    13   1  59 W9        30.12F WCI   1
STEVENS POINT  NOT AVBL
WAUPACA        CLOUDY    16   2  54 W10       30.10F WCI   4
SHAWANO        CLOUDY    16   2  54 W6        30.09S WCI   8
CLINTONVILLE   NOT AVBL
WAUTOMA        NOT AVBL
$$

WIZ038-039-048-051-121000-
FOX VALLEY

CITY           SKY/WX    TMP DP  RH WIND       PRES   REMARKS
NWS GREEN BAY  CLOUDY    15   2  56 W12       30.09F WCI   2
APPLETON       NOT AVBL
OSHKOSH        CLOUDY    15   1  53 W9        30.10F WCI   3
FOND DU LAC    CLOUDY    15   2  56 W9        30.11F WCI   3
$$

WIZ022-050-052-121000-
EAST CENTRAL WISCONSIN

CITY           SKY/WX    TMP DP  RH WIND       PRES   REMARKS
EPHRAIM        CLOUDY    14  -1  50 W12G23    30.02F WCI   1
STURGEON BAY   CLOUDY    14   0  52 W12G17    30.07F WCI   0
MANITOWOC      NOT AVBL
SHEBOYGAN      CLOUDY    16   2  54 W15       30.09F WCI   1
$$

LMZ563-521-522-541>543-121000-
LAKESHORE

STATION/POSITION TIME  TEMP    WIND        PRES    VSBY  WAVE
                       AIR SEA DIR/SP/G                  HT/PER
                 (UTC) (F)     (DEG/KT/KT) (MB)    (MI)  (FT/S)
SHEBOYGAN LKSHOR 0800   17     250/ 11/ 13 1021.5F
KEWAUNEE LKSHORE 0800   16     270/  9/ 14 1018.1F
CHAMBERS ISLAND  0800   15     240/  7/ 13 1017.9F
MENOMINEE LKSHOR 0800   15     280/  8     1017.1F
$$



USA.gov is the U.S. government's official web portal to all federal, state and local government web resources and services.